Powrót do katalogu

STARLINK-38232

AktywnyŁącznośćSSO
NORAD 100260·PAYLOAD·🇺🇸 United States

Wystrzelony Aug 8, 2026 z Vandenberg Space Force Base

Loading…

Następne Przeloty (najbliższe 24 godziny)

TLE

ŚwieżeSource: Space-Track

Epoka: Sep 14, 2026, 15:08 UTC

1 A0260U 26181Q   26257.63121265  .00162995  00000-0  10723-2 0  9991
2 A0260  97.2832 300.8919 0002002  77.3819 282.7670 15.75203053  7033

Śledź STARLINK-38232 w czasie rzeczywistym z AllMySat

Download on the App Store